| time (UTC) | temp C | wind direction | speed KPH | gust KPH | rain 1hr cm | rain 24hr cm | rain mn cm | humidity % | barometer mb |
| 20260906052144 | 23 | 12 | 3.2 | 17.7 | 0.00 | 0.00 | 0.00 | 92 | 1011.4 |
| 20260906051643 | 23 | 66 | 1.6 | 17.7 | 0.00 | 0.00 | 0.00 | 92 | 1011.5 |
| 20260906051143 | 23 | 4 | 3.2 | 17.7 | 0.00 | 0.00 | 0.00 | 91 | 1011.3 |
| 20260906050643 | 23 | 43 | 3.2 | 17.7 | 0.00 | 0.00 | 0.00 | 91 | 1011.6 |
| 20260906050143 | 23 | 341 | 3.2 | 17.7 | 0.00 | 0.00 | 0.00 | 91 | 1011.9 |
| 20260906045641 | 23 | 40 | 3.2 | 17.7 | 0.00 | 0.00 | 0.00 | 91 | 1011.4 |
| 20260906045140 | 23 | 34 | 3.2 | 17.7 | 0.00 | 0.00 | 0.00 | 91 | 1011.6 |
| 20260906044641 | 23 | 28 | 1.6 | 17.7 | 0.00 | 0.00 | 0.00 | 91 | 1011.5 |
| 20260906044141 | 23 | 292 | 1.6 | 17.7 | 0.00 | 0.00 | 0.00 | 91 | 1011.5 |
| 20260906043641 | 23 | 14 | 3.2 | 17.7 | 0.00 | 0.00 | 0.00 | 91 | 1011.3 |
| 20260906043140 | 23 | 19 | 3.2 | 17.7 | 0.00 | 0.00 | 0.00 | 90 | 1011.7 |
| 20260906042123 | 23 | 6 | 3.2 | 17.7 | 0.00 | 0.00 | 0.00 | 90 | 1011.3 |
| 20260906041622 | 23 | 55 | 3.2 | 17.7 | 0.00 | 0.00 | 0.00 | 90 | 1011.1 |
| 20260906041122 | 23 | 22 | 1.6 | 17.7 | 0.00 | 0.00 | 0.00 | 90 | 1011.3 |
| 20260906040621 | 24 | 47 | 3.2 | 17.7 | 0.00 | 0.00 | 0.00 | 90 | 1011.0 |
| 20260906040121 | 24 | 203 | 1.6 | 17.7 | 0.00 | 0.00 | 0.00 | 89 | 1011.2 |
| 20260906035105 | 24 | 45 | 3.2 | 17.7 | 0.00 | 0.00 | 0.00 | 89 | 1011.2 |
| 20260906034605 | 24 | 223 | 1.6 | 17.7 | 0.00 | 0.00 | 0.00 | 89 | 1011.2 |
| 20260906033549 | 24 | 40 | 8.0 | 17.7 | 0.00 | 0.00 | 0.00 | 89 | 1011.1 |
| 20260906033048 | 24 | 57 | 4.8 | 17.7 | 0.00 | 0.00 | 0.10 | 89 | 1011.1 |
| 20260906032548 | 24 | 35 | 6.4 | 17.7 | 0.00 | 0.00 | 0.10 | 89 | 1011.1 |
| 20260906030500 | 25 | 100 | 3.2 | 17.7 | 0.00 | 0.00 | 0.10 | 89 | 1011.2 |
| 20260906030001 | 25 | 44 | 4.8 | 17.7 | 0.00 | 0.00 | 0.10 | 89 | 1010.7 |
| 20260906025500 | 25 | 39 | 6.4 | 17.7 | 0.00 | 0.00 | 0.10 | 89 | 1010.9 |
| 20260906025001 | 25 | 41 | 6.4 | 17.7 | 0.00 | 0.00 | 0.10 | 89 | 1011.0 |
| 20260906024501 | 25 | 40 | 3.2 | 17.7 | 0.00 | 0.00 | 0.10 | 89 | 1011.1 |
| 20260906024001 | 25 | 43 | 8.0 | 17.7 | 0.00 | 0.00 | 0.10 | 89 | 1011.0 |
| 20260906022945 | 25 | 53 | 6.4 | 17.7 | 0.00 | 0.00 | 0.10 | 89 | 1011.2 |
| 20260906022445 | 25 | 45 | 4.8 | 17.7 | 0.00 | 0.00 | 0.10 | 89 | 1011.2 |
| 20260906021944 | 25 | 313 | 3.2 | 17.7 | 0.00 | 0.00 | 0.10 | 88 | 1010.8 |
| 20260906021444 | 25 | 48 | 4.8 | 17.7 | 0.00 | 0.00 | 0.10 | 88 | 1010.7 |
| 20260906020428 | 25 | 39 | 6.4 | 17.7 | 0.00 | 0.00 | 0.10 | 87 | 1010.7 |
| 20260906015928 | 25 | 53 | 6.4 | 17.7 | 0.00 | 0.00 | 0.10 | 87 | 1010.4 |
| 20260906015428 | 25 | 44 | 8.0 | 17.7 | 0.00 | 0.00 | 0.10 | 86 | 1010.5 |
| 20260906014413 | 25 | 18 | 4.8 | 19.3 | 0.00 | 0.00 | 0.10 | 84 | 1010.2 |
| 20260906013913 | 25 | 57 | 4.8 | 19.3 | 0.00 | 0.00 | 0.10 | 83 | 1010.1 |
| 20260906013413 | 25 | 51 | 8.0 | 19.3 | 0.00 | 0.00 | 0.10 | 81 | 1010.1 |
| 20260906012357 | 25 | 63 | 6.4 | 19.3 | 0.00 | 0.00 | 0.10 | 79 | 1010.1 |
| 20260906011856 | 25 | 136 | 1.6 | 19.3 | 0.00 | 0.00 | 0.10 | 78 | 1010.0 |
| 20260906011356 | 25 | 80 | 1.6 | 19.3 | 0.00 | 0.00 | 0.10 | 78 | 1009.9 |
| 20260906010855 | 25 | 44 | 1.6 | 19.3 | 0.00 | 0.00 | 0.10 | 78 | 1010.0 |
| 20260906010354 | 25 | 10 | 1.6 | 19.3 | 0.00 | 0.00 | 0.10 | 78 | 1009.7 |
| 20260906005854 | 25 | 2 | 3.2 | 19.3 | 0.00 | 0.00 | 0.10 | 77 | 1009.7 |
| 20260906005354 | 26 | 17 | 3.2 | 19.3 | 0.00 | 0.00 | 0.10 | 77 | 1009.9 |
| 20260906003823 | 26 | 20 | 3.2 | 19.3 | 0.00 | 0.00 | 0.10 | 77 | 1009.5 |
| 20260906003322 | 26 | 55 | 1.6 | 19.3 | 0.00 | 0.00 | 0.10 | 77 | 1009.5 |
| 20260906002822 | 26 | 71 | 0.0 | 19.3 | 0.00 | 0.00 | 0.10 | 76 | 1009.3 |
| 20260906002321 | 26 | 11 | 4.8 | 19.3 | 0.00 | 0.00 | 0.10 | 76 | 1009.1 |
| 20260906001305 | 26 | 51 | 3.2 | 19.3 | 0.00 | 0.00 | 0.10 | 75 | 1009.2 |
| 20260906000804 | 26 | 31 | 1.6 | 19.3 | 0.00 | 0.00 | 0.10 | 74 | 1009.1 |
| 20260906000304 | 26 | 43 | 1.6 | 19.3 | 0.00 | 0.00 | 0.10 | 74 | 1009.2 |
| 20260905235248 | 26 | 100 | 3.2 | 19.3 | 0.00 | 0.00 | 0.10 | 73 | 1009.2 |
| 20260905234233 | 26 | 75 | 1.6 | 19.3 | 0.00 | 0.00 | 0.10 | 74 | 1009.1 |
| 20260905233732 | 27 | 34 | 4.8 | 19.3 | 0.00 | 0.00 | 0.10 | 73 | 1009.0 |
| 20260905233231 | 27 | 14 | 3.2 | 19.3 | 0.00 | 0.00 | 0.10 | 73 | 1009.4 |
| 20260905232730 | 27 | 29 | 3.2 | 19.3 | 0.00 | 0.00 | 0.10 | 74 | 1008.2 |
| 20260905231714 | 27 | 32 | 4.8 | 19.3 | 0.00 | 0.00 | 0.10 | 73 | 1008.4 |
| 20260905231213 | 27 | 85 | 3.2 | 19.3 | 0.00 | 0.00 | 0.10 | 74 | 1009.3 |
| 20260905230712 | 28 | 60 | 6.4 | 22.5 | 0.00 | 0.00 | 0.10 | 72 | 1009.1 |
| 20260905230212 | 28 | 30 | 6.4 | 24.1 | 0.00 | 0.00 | 0.10 | 71 | 1009.5 |
| 20260905225712 | 30 | 43 | 8.0 | 24.1 | 0.00 | 0.00 | 0.10 | 67 | 1009.7 |
| 20260905225211 | 31 | 19 | 11.3 | 25.7 | 0.00 | 0.00 | 0.10 | 64 | 1009.4 |
| 20260905224710 | 32 | 44 | 4.8 | 25.7 | 0.00 | 0.00 | 0.10 | 63 | 1010.0 |
| 20260905224209 | 32 | 13 | 4.8 | 17.7 | 0.00 | 0.00 | 0.10 | 63 | 1009.4 |
| 20260905223709 | 32 | 311 | 3.2 | 17.7 | 0.00 | 0.00 | 0.10 | 64 | 1009.5 |
| 20260905223209 | 32 | 309 | 4.8 | 17.7 | 0.00 | 0.00 | 0.10 | 64 | 1009.4 |
| 20260905222709 | 32 | 290 | 1.6 | 17.7 | 0.00 | 0.00 | 0.10 | 63 | 1009.7 |
| 20260905222209 | 32 | 35 | 3.2 | 17.7 | 0.00 | 0.00 | 0.10 | 63 | 1009.9 |
| 20260905221154 | 33 | 97 | 3.2 | 17.7 | 0.00 | 0.00 | 0.10 | 63 | 1009.4 |
| 20260905220653 | 32 | 315 | 4.8 | 17.7 | 0.00 | 0.00 | 0.10 | 63 | 1009.7 |
| 20260905220152 | 32 | 296 | 4.8 | 17.7 | 0.00 | 0.00 | 0.10 | 63 | 1009.7 |
| 20260905215651 | 32 | 310 | 3.2 | 17.7 | 0.00 | 0.00 | 0.10 | 63 | 1009.2 |
| 20260905214634 | 32 | 257 | 3.2 | 17.7 | 0.00 | 0.00 | 0.10 | 62 | 1009.0 |
| 20260905214134 | 32 | 261 | 3.2 | 17.7 | 0.00 | 0.00 | 0.10 | 61 | 1008.8 |
| 20260905213634 | 32 | 279 | 4.8 | 17.7 | 0.00 | 0.00 | 0.10 | 61 | 1009.1 |
| 20260905213134 | 32 | 259 | 3.2 | 17.7 | 0.00 | 0.00 | 0.10 | 61 | 1008.9 |
| 20260905211602 | 33 | 299 | 6.4 | 17.7 | 0.00 | 0.00 | 0.10 | 59 | 1008.8 |
| 20260905211101 | 33 | 290 | 6.4 | 17.7 | 0.00 | 0.00 | 0.10 | 58 | 1008.8 |
| 20260905210601 | 33 | 276 | 4.8 | 17.7 | 0.00 | 0.00 | 0.10 | 59 | 1008.7 |
| 20260905210100 | 33 | 298 | 4.8 | 17.7 | 0.00 | 0.00 | 0.10 | 58 | 1009.0 |
| 20260905205559 | 33 | 287 | 6.4 | 17.7 | 0.00 | 0.00 | 0.10 | 58 | 1009.5 |
| 20260905204542 | 33 | 249 | 4.8 | 17.7 | 0.00 | 0.00 | 0.10 | 56 | 1009.3 |
| 20260905204042 | 33 | 284 | 6.4 | 17.7 | 0.00 | 0.00 | 0.10 | 56 | 1009.5 |
| 20260905203542 | 34 | 301 | 4.8 | 17.7 | 0.00 | 0.00 | 0.10 | 56 | 1009.5 |
| 20260905203041 | 34 | 272 | 1.6 | 17.7 | 0.00 | 0.00 | 0.10 | 55 | 1009.5 |
| 20260905202541 | 34 | 310 | 6.4 | 17.7 | 0.00 | 0.00 | 0.10 | 55 | 1009.8 |
| 20260905202041 | 35 | 255 | 4.8 | 17.7 | 0.00 | 0.00 | 0.10 | 54 | 1009.7 |
| 20260905201541 | 35 | 315 | 4.8 | 17.7 | 0.00 | 0.00 | 0.10 | 55 | 1009.7 |
| 20260905201040 | 35 | 282 | 3.2 | 17.7 | 0.00 | 0.00 | 0.10 | 54 | 1010.3 |
| 20260905200540 | 35 | 295 | 6.4 | 17.7 | 0.00 | 0.00 | 0.10 | 53 | 1009.9 |
| 20260905200039 | 35 | 317 | 3.2 | 17.7 | 0.00 | 0.00 | 0.10 | 53 | 1009.8 |
| 20260905195023 | 35 | 232 | 4.8 | 17.7 | 0.00 | 0.00 | 0.10 | 52 | 1010.0 |
| 20260905194523 | 35 | 216 | 1.6 | 17.7 | 0.00 | 0.00 | 0.10 | 52 | 1010.2 |
| 20260905194022 | 35 | 245 | 1.6 | 17.7 | 0.00 | 0.00 | 0.10 | 51 | 1010.0 |
| 20260905193522 | 35 | 209 | 6.4 | 17.7 | 0.00 | 0.00 | 0.10 | 52 | 1009.8 |
| 20260905193022 | 35 | 183 | 1.6 | 17.7 | 0.00 | 0.00 | 0.10 | 52 | 1010.1 |
| 20260905192522 | 35 | 233 | 3.2 | 17.7 | 0.00 | 0.00 | 0.10 | 52 | 1010.1 |
| 20260905192022 | 35 | 253 | 3.2 | 17.7 | 0.00 | 0.00 | 0.10 | 52 | 1010.2 |
| 20260905191522 | 35 | 210 | 6.4 | 17.7 | 0.00 | 0.00 | 0.10 | 53 | 1010.5 |
| 20260905191021 | 35 | 219 | 6.4 | 17.7 | 0.00 | 0.00 | 0.10 | 53 | 1010.4 |
| 20260905190521 | 35 | 233 | 6.4 | 17.7 | 0.00 | 0.00 | 0.10 | 53 | 1010.7 |
| 20260905190021 | 35 | 258 | 1.6 | 17.7 | 0.00 | 0.00 | 0.10 | 53 | 1010.6 |
| 20260905185521 | 35 | 208 | 6.4 | 17.7 | 0.00 | 0.00 | 0.10 | 53 | 1010.4 |
| 20260905185021 | 35 | 213 | 4.8 | 17.7 | 0.00 | 0.00 | 0.10 | 52 | 1010.6 |
| 20260905184521 | 34 | 229 | 6.4 | 17.7 | 0.00 | 0.00 | 0.10 | 53 | 1010.7 |
| 20260905184021 | 34 | 266 | 4.8 | 17.7 | 0.00 | 0.00 | 0.10 | 53 | 1010.8 |
| 20260905183521 | 33 | 221 | 4.8 | 17.7 | 0.00 | 0.00 | 0.10 | 54 | 1010.8 |
| 20260905183020 | 33 | 201 | 8.0 | 17.7 | 0.00 | 0.00 | 0.10 | 54 | 1010.9 |
| 20260905182520 | 33 | 206 | 6.4 | 17.7 | 0.00 | 0.00 | 0.10 | 54 | 1010.9 |
| 20260905182020 | 33 | 205 | 8.0 | 17.7 | 0.00 | 0.00 | 0.10 | 54 | 1010.9 |
| 20260905181520 | 33 | 228 | 6.4 | 17.7 | 0.00 | 0.00 | 0.10 | 54 | 1011.0 |
| 20260905180505 | 33 | 239 | 6.4 | 17.7 | 0.00 | 0.00 | 0.10 | 54 | 1011.1 |
| 20260905180005 | 33 | 227 | 6.4 | 17.7 | 0.00 | 0.00 | 0.10 | 55 | 1011.0 |
| 20260905175504 | 33 | 216 | 6.4 | 17.7 | 0.00 | 0.00 | 0.10 | 55 | 1011.1 |
| 20260905175003 | 33 | 189 | 8.0 | 17.7 | 0.00 | 0.00 | 0.10 | 56 | 1011.1 |
| 20260905174503 | 32 | 220 | 8.0 | 17.7 | 0.00 | 0.00 | 0.10 | 56 | 1011.2 |
| 20260905174003 | 32 | 210 | 6.4 | 17.7 | 0.00 | 0.00 | 0.10 | 56 | 1011.1 |
| 20260905172432 | 31 | 211 | 6.4 | 17.7 | 0.00 | 0.00 | 0.10 | 59 | 1011.5 |
| 20260905171931 | 31 | 213 | 6.4 | 17.7 | 0.00 | 0.00 | 0.10 | 59 | 1011.4 |
| 20260905171431 | 31 | 189 | 6.4 | 17.7 | 0.00 | 0.00 | 0.10 | 59 | 1011.5 |
| 20260905170931 | 31 | 185 | 8.0 | 17.7 | 0.00 | 0.00 | 0.10 | 60 | 1011.4 |
| 20260905170430 | 31 | 192 | 8.0 | 17.7 | 0.00 | 0.00 | 0.10 | 59 | 1011.4 |
| 20260905165929 | 31 | 221 | 4.8 | 17.7 | 0.00 | 0.00 | 0.10 | 60 | 1011.6 |
| 20260905165428 | 30 | 206 | 4.8 | 17.7 | 0.00 | 0.00 | 0.10 | 61 | 1012.0 |
| 20260905164413 | 29 | 219 | 3.2 | 17.7 | 0.00 | 0.00 | 0.10 | 63 | 1012.3 |
| 20260905163912 | 28 | 159 | 3.2 | 17.7 | 0.00 | 0.00 | 0.10 | 66 | 1012.2 |
| 20260905163412 | 28 | 210 | 3.2 | 17.7 | 0.00 | 0.00 | 0.10 | 68 | 1011.9 |
| 20260905161325 | 28 | 179 | 4.8 | 17.7 | 0.00 | 0.00 | 0.10 | 65 | 1011.9 |
| 20260905160825 | 28 | 169 | 3.2 | 17.7 | 0.00 | 0.00 | 0.10 | 65 | 1011.8 |
| 20260905155808 | 30 | 179 | 8.0 | 17.7 | 0.00 | 0.00 | 0.10 | 62 | 1011.7 |
| 20260905155307 | 30 | 189 | 6.4 | 17.7 | 0.00 | 0.00 | 0.10 | 62 | 1012.0 |
| 20260905154252 | 29 | 205 | 6.4 | 17.7 | 0.00 | 0.00 | 0.10 | 63 | 1012.3 |
| 20260905153751 | 28 | 218 | 8.0 | 17.7 | 0.00 | 0.00 | 0.10 | 64 | 1012.0 |
| 20260905153250 | 28 | 186 | 4.8 | 17.7 | 0.00 | 0.00 | 0.10 | 65 | 1012.3 |
| 20260905152750 | 28 | 187 | 6.4 | 17.7 | 0.00 | 0.00 | 0.10 | 65 | 1012.1 |
| 20260905152249 | 28 | 215 | 6.4 | 17.7 | 0.00 | 0.00 | 0.10 | 66 | 1011.9 |
| 20260905151233 | 27 | 194 | 6.4 | 17.7 | 0.00 | 0.00 | 0.10 | 67 | 1011.8 |
| 20260905150733 | 27 | 155 | 4.8 | 17.7 | 0.00 | 0.00 | 0.10 | 67 | 1011.7 |
| 20260905150232 | 27 | 178 | 4.8 | 17.7 | 0.00 | 0.00 | 0.10 | 69 | 1011.7 |
| 20260905145216 | 27 | 186 | 8.0 | 17.7 | 0.00 | 0.00 | 0.10 | 70 | 1011.9 |
| 20260905144201 | 26 | 164 | 8.0 | 17.7 | 0.00 | 0.00 | 0.10 | 72 | 1011.8 |
| 20260905143700 | 26 | 166 | 8.0 | 17.7 | 0.00 | 0.00 | 0.10 | 72 | 1012.1 |
| 20260905143200 | 25 | 138 | 4.8 | 17.7 | 0.00 | 0.00 | 0.10 | 74 | 1012.2 |
| 20260905142659 | 25 | 158 | 8.0 | 17.7 | 0.00 | 0.00 | 0.10 | 74 | 1012.4 |
| 20260905141642 | 25 | 177 | 8.0 | 17.7 | 0.00 | 0.00 | 0.10 | 75 | 1012.1 |
| 20260905141142 | 25 | 166 | 4.8 | 17.7 | 0.00 | 0.00 | 0.10 | 77 | 1012.2 |
| 20260905140641 | 25 | 168 | 8.0 | 17.7 | 0.00 | 0.00 | 0.10 | 77 | 1011.8 |
| 20260905140141 | 24 | 150 | 4.8 | 17.7 | 0.00 | 0.00 | 0.10 | 78 | 1012.2 |
| 20260905135640 | 24 | 170 | 8.0 | 17.7 | 0.00 | 0.00 | 0.10 | 78 | 1012.2 |
| 20260905135139 | 24 | 153 | 8.0 | 17.7 | 0.00 | 0.00 | 0.10 | 79 | 1012.3 |
| 20260905134639 | 23 | 146 | 6.4 | 17.7 | 0.00 | 0.00 | 0.10 | 79 | 1012.3 |
| 20260905134138 | 23 | 166 | 4.8 | 17.7 | 0.00 | 0.00 | 0.10 | 80 | 1012.3 |
| 20260905132605 | 23 | 168 | 3.2 | 17.7 | 0.00 | 0.00 | 0.10 | 81 | 1012.2 |
| 20260905132104 | 23 | 142 | 6.4 | 17.7 | 0.00 | 0.00 | 0.10 | 82 | 1012.4 |
| 20260905131604 | 23 | 142 | 6.4 | 17.7 | 0.00 | 0.00 | 0.10 | 82 | 1012.4 |
| 20260905125517 | 22 | 83 | 1.6 | 17.7 | 0.00 | 0.00 | 0.10 | 85 | 1012.0 |
| 20260905125017 | 22 | 153 | 1.6 | 17.7 | 0.00 | 0.00 | 0.10 | 86 | 1012.2 |
| 20260905124517 | 22 | 150 | 3.2 | 17.7 | 0.00 | 0.00 | 0.10 | 86 | 1012.1 |
| 20260905124017 | 21 | 165 | 4.8 | 17.7 | 0.00 | 0.00 | 0.10 | 86 | 1011.9 |
| 20260905123516 | 21 | 151 | 4.8 | 17.7 | 0.00 | 0.00 | 0.10 | 87 | 1011.8 |
| 20260905123016 | 21 | 136 | 1.6 | 17.7 | 0.00 | 0.00 | 0.10 | 87 | 1012.2 |
| 20260905122515 | 21 | 147 | 6.4 | 17.7 | 0.00 | 0.00 | 0.10 | 87 | 1012.0 |
| 20260905122014 | 21 | 172 | 0.0 | 17.7 | 0.00 | 0.00 | 0.10 | 88 | 1011.9 |
| 20260905121513 | 21 | 111 | 1.6 | 17.7 | 0.00 | 0.00 | 0.10 | 88 | 1012.1 |
| 20260905121013 | 21 | 195 | 1.6 | 17.7 | 0.00 | 0.00 | 0.10 | 88 | 1012.4 |
| 20260905120512 | 21 | 103 | 1.6 | 17.7 | 0.00 | 0.00 | 0.10 | 88 | 1012.6 |
| 20260905120012 | 21 | 80 | 3.2 | 17.7 | 0.08 | 0.00 | 0.10 | 88 | 1012.1 |
| 20260905115511 | 21 | 78 | 3.2 | 17.7 | 0.10 | 0.00 | 0.10 | 88 | 1012.1 |
| 20260905114454 | 21 | 88 | 1.6 | 17.7 | 0.10 | 0.00 | 0.10 | 88 | 1012.0 |
| 20260905113954 | 21 | 98 | 3.2 | 17.7 | 0.10 | 0.00 | 0.10 | 88 | 1012.3 |
| 20260905113453 | 21 | 74 | 3.2 | 17.7 | 0.10 | 0.00 | 0.10 | 88 | 1011.9 |
| 20260905112952 | 21 | 85 | 3.2 | 17.7 | 0.10 | 0.00 | 0.10 | 88 | 1011.9 |
| 20260905112451 | 21 | 65 | 6.4 | 17.7 | 0.10 | 0.00 | 0.10 | 88 | 1011.9 |
| 20260905111950 | 21 | 84 | 4.8 | 17.7 | 0.10 | 0.00 | 0.10 | 88 | 1012.3 |
| 20260905111449 | 21 | 99 | 3.2 | 17.7 | 0.10 | 0.00 | 0.10 | 87 | 1011.7 |
| 20260905110949 | 22 | 73 | 4.8 | 17.7 | 0.10 | 0.00 | 0.10 | 86 | 1012.1 |
| 20260905110448 | 22 | 73 | 6.4 | 17.7 | 0.10 | 0.00 | 0.10 | 85 | 1011.8 |
| 20260905105948 | 22 | 43 | 6.4 | 17.7 | 0.10 | 0.00 | 0.10 | 84 | 1012.0 |
| 20260905105448 | 22 | 78 | 3.2 | 19.3 | 0.00 | 0.00 | 0.00 | 82 | 1012.1 |
| 20260905104947 | 22 | 76 | 4.8 | 19.3 | 0.00 | 0.00 | 0.00 | 81 | 1012.5 |
| 20260905104447 | 22 | 71 | 4.8 | 19.3 | 0.00 | 0.00 | 0.00 | 81 | 1012.2 |
| 20260905102915 | 23 | 44 | 9.7 | 25.7 | 0.00 | 0.00 | 0.00 | 80 | 1012.3 |
| 20260905101859 | 23 | 101 | 6.4 | 24.1 | 0.00 | 0.00 | 0.00 | 83 | 1012.1 |
| 20260905101358 | 23 | 36 | 12.9 | 24.1 | 0.00 | 0.00 | 0.00 | 87 | 1011.7 |
| 20260905100342 | 24 | 221 | 0.0 | 17.7 | 0.00 | 0.00 | 0.00 | 91 | 1011.2 |
| 20260905095842 | 24 | 221 | 0.0 | 17.7 | 0.00 | 0.00 | 0.00 | 91 | 1011.1 |
| 20260905094827 | 24 | 221 | 0.0 | 17.7 | 0.00 | 0.00 | 0.00 | 91 | 1010.8 |
| 20260905094327 | 24 | 221 | 0.0 | 17.7 | 0.00 | 0.00 | 0.00 | 91 | 1011.2 |
| 20260905093827 | 24 | 221 | 0.0 | 17.7 | 0.00 | 0.00 | 0.00 | 91 | 1011.3 |
| 20260905093326 | 24 | 220 | 0.0 | 17.7 | 0.00 | 0.00 | 0.00 | 91 | 1010.8 |
| 20260905092826 | 24 | 220 | 0.0 | 17.7 | 0.00 | 0.00 | 0.00 | 91 | 1010.9 |
| 20260905092326 | 25 | 220 | 0.0 | 17.7 | 0.00 | 0.00 | 0.00 | 91 | 1010.9 |
| 20260905091826 | 25 | 220 | 0.0 | 17.7 | 0.00 | 0.00 | 0.00 | 90 | 1010.9 |
| 20260905090811 | 25 | 220 | 0.0 | 17.7 | 0.00 | 0.00 | 0.00 | 90 | 1010.8 |
| 20260905090310 | 25 | 220 | 0.0 | 17.7 | 0.00 | 0.00 | 0.00 | 90 | 1010.9 |
| 20260905085810 | 25 | 220 | 0.0 | 17.7 | 0.00 | 0.00 | 0.00 | 90 | 1010.9 |
| 20260905085310 | 25 | 220 | 0.0 | 17.7 | 0.00 | 0.00 | 0.00 | 90 | 1010.8 |
| 20260905084809 | 25 | 220 | 0.0 | 17.7 | 0.00 | 0.00 | 0.00 | 89 | 1011.0 |
| 20260905083237 | 25 | 220 | 0.0 | 17.7 | 0.00 | 0.00 | 0.00 | 89 | 1011.0 |
| 20260905082737 | 25 | 220 | 0.0 | 17.7 | 0.00 | 0.00 | 0.00 | 89 | 1010.8 |
| 20260905082237 | 25 | 220 | 0.0 | 17.7 | 0.00 | 0.00 | 0.00 | 88 | 1010.8 |
| 20260905081736 | 25 | 220 | 0.0 | 17.7 | 0.00 | 0.00 | 0.00 | 88 | 1010.7 |
| 20260905081236 | 25 | 220 | 0.0 | 17.7 | 0.00 | 0.00 | 0.00 | 89 | 1010.8 |
| 20260905080736 | 25 | 220 | 0.0 | 17.7 | 0.00 | 0.00 | 0.00 | 89 | 1010.6 |
| 20260905080235 | 25 | 220 | 0.0 | 17.7 | 0.00 | 0.00 | 0.00 | 89 | 1010.8 |
| 20260905075735 | 25 | 220 | 0.0 | 17.7 | 0.00 | 0.00 | 0.00 | 88 | 1010.3 |
| 20260905075235 | 25 | 220 | 0.0 | 17.7 | 0.00 | 0.00 | 0.00 | 88 | 1010.2 |
| 20260905074219 | 25 | 220 | 0.0 | 17.7 | 0.00 | 0.00 | 0.00 | 88 | 1010.1 |
| 20260905073718 | 25 | 220 | 1.6 | 17.7 | 0.00 | 0.00 | 0.00 | 88 | 1010.1 |
| 20260905073218 | 25 | 177 | 1.6 | 17.7 | 0.00 | 0.00 | 0.00 | 88 | 1009.8 |
| 20260905072717 | 25 | 198 | 3.2 | 17.7 | 0.00 | 0.00 | 0.00 | 88 | 1010.1 |
| 20260905072216 | 25 | 207 | 3.2 | 17.7 | 0.00 | 0.00 | 0.00 | 88 | 1010.0 |
| 20260905071716 | 25 | 204 | 1.6 | 17.7 | 0.00 | 0.00 | 0.00 | 88 | 1010.1 |
| 20260905071215 | 25 | 204 | 0.0 | 17.7 | 0.00 | 0.00 | 0.00 | 88 | 1010.0 |
| 20260905070714 | 25 | 204 | 1.6 | 17.7 | 0.00 | 0.00 | 0.00 | 88 | 1010.2 |
| 20260905070211 | 25 | 204 | 1.6 | 17.7 | 0.00 | 0.00 | 0.00 | 87 | 1010.1 |
| 20260905065154 | 25 | 190 | 1.6 | 17.7 | 0.00 | 0.00 | 0.00 | 87 | 1010.0 |
| 20260905064139 | 25 | 201 | 3.2 | 17.7 | 0.00 | 0.00 | 0.00 | 87 | 1010.4 |
| 20260905063639 | 25 | 193 | 3.2 | 17.7 | 0.00 | 0.00 | 0.00 | 87 | 1010.5 |
| 20260905063139 | 25 | 213 | 3.2 | 17.7 | 0.00 | 0.00 | 0.00 | 87 | 1010.8 |
| 20260905062638 | 25 | 197 | 0.0 | 17.7 | 0.00 | 0.00 | 0.00 | 87 | 1010.5 |
| 20260905061622 | 25 | 199 | 1.6 | 17.7 | 0.00 | 0.00 | 0.00 | 86 | 1010.9 |
| 20260905061122 | 25 | 200 | 0.0 | 17.7 | 0.00 | 0.00 | 0.00 | 86 | 1010.5 |
| 20260905060621 | 25 | 199 | 3.2 | 17.7 | 0.00 | 0.00 | 0.00 | 86 | 1011.1 |
| 20260905055605 | 25 | 196 | 3.2 | 17.7 | 0.00 | 0.00 | 0.00 | 87 | 1010.9 |
| 20260905055105 | 25 | 197 | 1.6 | 17.7 | 0.00 | 0.00 | 0.00 | 87 | 1011.4 |
| 20260905053017 | 25 | 187 | 0.0 | 17.7 | 0.00 | 0.00 | 0.00 | 87 | 1011.2 |
| 20260905052518 | 25 | 179 | 1.6 | 17.7 | 0.00 | 0.00 | 0.00 | 87 | 1011.4 |